Franklin, PA

11:36 PM EST on November 21, 2019 (GMT -0500)
Venango Regional

Weather History for KFKL - September, 2019

Change the Weather History Date:

Wednesday, September 4, 2019

  Actual Average Record
Temperature  
Mean Temperature 65 °F -  
Max Temperature 75 °F 76 °F 93 °F (1929)
Min Temperature 55 °F 55 °F 40 °F (1946)
Growing Degree Days 15 (Base 50)    
Moisture  
Dew Point 60 °F    
Average Humidity 79    
Maximum Humidity 94    
Minimum Humidity 63    
Precipitation  
Precipitation 0.00 in - - ()
Sea Level Pressure  
Sea Level Pressure 29.99 in    
Wind  
Wind Speed 8 mph (WSW)    
Max Wind Speed 13 mph    
Max Gust Speed 22 mph    
Visibility 10 miles    
Events Rain    
Averages and records for this station are not official NWS values.
T = Trace of Precipitation, MM = Missing Value Source: NWS Daily Summary

Daily Weather History Graph

Daily Weather History Graph

Search for Another Location

Airport or City:

Astronomy

Sep. 04, 2019 Rise Set
Actual Time 6:48 AM EDT 7:47 PM EDT
Civil Twilight 6:20 AM EDT 8:15 PM EDT
Nautical Twilight 5:46 AM EDT 8:49 PM EDT
Astronomical Twilight 5:11 AM EDT 9:24 PM EDT
Moon 12:51 PM EDT (9/4) 11:16 PM EDT (9/4)
Length of Visible Light 13h 55m
Length of Day
12h 59m
Waxing Crescent, 34% of the Moon is Illuminated
Sep 4
Waxing Crescent
Sep 5
First Quarter
Sep 14
Full
Sep 21
Last Quarter
Sep 28
New

Hourly Weather History & Observations

Time (EDT) Temp. Dew Point Humidity Pressure Visibility Wind Dir Wind Speed Gust Speed Precip Events Conditions
12:56 AM 69.1 °F 63.0 °F 81% 29.92 in 10.0 mi SW 5.8 mph - 0.00 in Rain Light Rain
1:56 AM 69.1 °F 64.0 °F 84% 29.90 in 10.0 mi SW 9.2 mph - 0.00 in   Mostly Cloudy
2:56 AM 69.1 °F 64.0 °F 84% 29.88 in 10.0 mi SW 6.9 mph - N/A   Overcast
3:44 AM 69.8 °F 64.4 °F 83% 29.89 in 10.0 mi SW 10.4 mph - N/A   Overcast
3:56 AM 70.0 °F 64.0 °F 81% 29.86 in 10.0 mi SW 10.4 mph - N/A   Overcast
4:56 AM 70.0 °F 64.9 °F 84% 29.86 in 10.0 mi SW 12.7 mph - N/A   Overcast
5:56 AM 69.1 °F 64.9 °F 87% 29.88 in 10.0 mi SW 9.2 mph - N/A   Overcast
6:56 AM 68.0 °F 64.9 °F 90% 29.89 in 10.0 mi SSW 8.1 mph - N/A   Partly Cloudy
7:56 AM 68.0 °F 64.9 °F 90% 29.92 in 10.0 mi SW 8.1 mph - N/A   Overcast
8:28 AM 69.8 °F 66.2 °F 88% 29.95 in 10.0 mi SW 8.1 mph - N/A   Overcast
8:37 AM 69.8 °F 66.2 °F 88% 29.95 in 10.0 mi WSW 9.2 mph - N/A   Overcast
8:56 AM 71.1 °F 66.0 °F 84% 29.93 in 10.0 mi WSW 9.2 mph - N/A   Mostly Cloudy
9:30 AM 71.6 °F 64.4 °F 78% 29.97 in 10.0 mi WNW 10.4 mph 16.1 mph N/A   Scattered Clouds
9:56 AM 72.0 °F 61.0 °F 68% 29.96 in 10.0 mi WNW 6.9 mph - N/A   Clear
10:56 AM 73.0 °F 60.1 °F 64% 29.97 in 10.0 mi West 12.7 mph 21.9 mph N/A   Mostly Cloudy
11:56 AM 75.0 °F 62.1 °F 64% 29.97 in 10.0 mi West 10.4 mph 17.3 mph N/A   Mostly Cloudy
12:56 PM 73.0 °F 61.0 °F 66% 29.99 in 10.0 mi NW 12.7 mph 18.4 mph N/A   Mostly Cloudy
1:56 PM 72.0 °F 59.0 °F 64% 30.00 in 10.0 mi WNW 10.4 mph 18.4 mph N/A   Mostly Cloudy
3:56 PM 72.0 °F 59.0 °F 64% 30.02 in 10.0 mi NW 10.4 mph - N/A   Mostly Cloudy
4:56 PM 71.1 °F 57.9 °F 63% 30.04 in 10.0 mi Variable 6.9 mph 16.1 mph N/A   Scattered Clouds
5:22 PM 69.8 °F 57.2 °F 64% 30.06 in 10.0 mi Variable 5.8 mph - N/A   Mostly Cloudy
5:40 PM 66.2 °F 57.2 °F 73% 30.07 in 10.0 mi Variable 5.8 mph - N/A   Scattered Clouds
5:56 PM 66.0 °F 57.0 °F 73% 30.06 in 10.0 mi Variable 6.9 mph - N/A   Mostly Cloudy
6:56 PM 64.0 °F 55.0 °F 73% 30.09 in 10.0 mi NNW 8.1 mph - N/A   Mostly Cloudy
7:56 PM 62.1 °F 54.0 °F 75% 30.11 in 10.0 mi Variable 3.5 mph - N/A   Overcast
8:20 PM 60.8 °F 53.6 °F 77% 30.12 in 10.0 mi Calm Calm - N/A   Scattered Clouds
8:56 PM 59.0 °F 53.1 °F 81% 30.11 in 10.0 mi Variable 3.5 mph - N/A   Clear
9:56 PM 57.0 °F 54.0 °F 89% 30.10 in 10.0 mi North 3.5 mph - N/A   Clear
10:56 PM 55.9 °F 54.0 °F 93% 30.12 in 10.0 mi Calm Calm - N/A   Mostly Cloudy
11:43 PM 55.4 °F 53.6 °F 94% 30.12 in 10.0 mi Calm Calm - N/A   Scattered Clouds
11:56 PM 55.0 °F 53.1 °F 93% 30.11 in 10.0 mi Calm Calm - N/A   Clear